| time (UTC) | temp F | wind direction | speed MPH | gust MPH | rain 1hr in | rain 24hr in | rain mn in | humidity % | barometer mb |
| 20260509161506 | 57 | 194 | 3.0 | 7.0 | 0.00 | 0.00 | 0.00 | 44 | 1022.9 |
| 20260509160004 | 56 | 166 | 1.0 | 5.0 | 0.00 | 0.00 | 0.00 | 47 | 1022.9 |
| 20260509154507 | 55 | 199 | 2.0 | 5.0 | 0.00 | 0.00 | 0.00 | 49 | 1022.8 |
| 20260509153015 | 52 | 182 | 1.0 | 4.0 | 0.00 | 0.00 | 0.00 | 51 | 1022.8 |
| 20260509151504 | 51 | 190 | 1.0 | 4.0 | 0.00 | 0.00 | 0.00 | 56 | 1022.9 |
| 20260509150009 | 49 | 198 | 0.0 | 3.0 | 0.00 | 0.00 | 0.00 | 58 | 1022.9 |
| 20260509144521 | 48 | 277 | 1.0 | 3.0 | 0.00 | 0.00 | 0.00 | 60 | 1023.0 |
| 20260509143005 | 45 | 283 | 0.0 | 2.0 | 0.00 | 0.00 | 0.00 | 63 | 1023.0 |
| 20260509141513 | 45 | 312 | 0.0 | 3.0 | 0.00 | 0.00 | 0.00 | 63 | 1022.9 |
| 20260509140013 | 42 | 294 | 1.0 | 2.0 | 0.00 | 0.00 | 0.00 | 66 | 1022.9 |
| 20260509134515 | 41 | 316 | 0.0 | 2.0 | 0.00 | 0.00 | 0.00 | 68 | 1022.8 |
| 20260509133017 | 38 | 302 | 2.0 | 4.0 | 0.00 | 0.00 | 0.00 | 71 | 1022.6 |
| 20260509131515 | 37 | 315 | 2.0 | 5.0 | 0.00 | 0.00 | 0.00 | 72 | 1022.5 |
| 20260509130012 | 38 | 335 | 0.0 | 3.0 | 0.00 | 0.00 | 0.00 | 71 | 1022.3 |
| 20260509124514 | 37 | 321 | 2.0 | 3.0 | 0.00 | 0.00 | 0.00 | 72 | 1022.2 |
| 20260509123018 | 37 | 17 | 1.0 | 3.0 | 0.00 | 0.00 | 0.00 | 71 | 1022.1 |
| 20260509121527 | 38 | 190 | 0.0 | 2.0 | 0.00 | 0.00 | 0.00 | 68 | 1022.2 |
| 20260509120017 | 40 | 282 | 1.0 | 3.0 | 0.00 | 0.00 | 0.00 | 66 | 1022.3 |
| 20260509114528 | 40 | 299 | 1.0 | 3.0 | 0.00 | 0.00 | 0.00 | 66 | 1022.3 |
| 20260509113024 | 39 | 5 | 1.0 | 3.0 | 0.00 | 0.00 | 0.00 | 65 | 1022.3 |
| 20260509110020 | 41 | 86 | 0.0 | 3.0 | 0.00 | 0.00 | 0.00 | 62 | 1022.4 |
| 20260509104534 | 42 | 88 | 0.0 | 7.0 | 0.00 | 0.00 | 0.00 | 59 | 1022.4 |
| 20260509103022 | 42 | 328 | 3.0 | 4.0 | 0.00 | 0.00 | 0.00 | 61 | 1022.3 |
| 20260509101527 | 41 | 257 | 2.0 | 4.0 | 0.00 | 0.00 | 0.00 | 58 | 1022.4 |
| 20260509100020 | 42 | 319 | 0.0 | 3.0 | 0.00 | 0.00 | 0.00 | 58 | 1022.2 |
| 20260509094531 | 43 | 256 | 1.0 | 2.0 | 0.00 | 0.00 | 0.00 | 56 | 1022.2 |
| 20260509093021 | 44 | 256 | 0.0 | 2.0 | 0.00 | 0.00 | 0.00 | 55 | 1022.1 |
| 20260509091535 | 44 | 256 | 1.0 | 3.0 | 0.00 | 0.00 | 0.00 | 53 | 1022.0 |
| 20260509090003 | 46 | 198 | 1.0 | 5.0 | 0.00 | 0.00 | 0.00 | 51 | 1022.1 |
| 20260509084506 | 46 | 259 | 1.0 | 4.0 | 0.00 | 0.00 | 0.00 | 52 | 1022.0 |
| 20260509083007 | 46 | 151 | 2.0 | 7.0 | 0.00 | 0.00 | 0.00 | 51 | 1021.8 |
| 20260509081506 | 49 | 144 | 1.0 | 3.0 | 0.00 | 0.00 | 0.00 | 44 | 1021.7 |
| 20260509080006 | 49 | 60 | 1.0 | 4.0 | 0.00 | 0.00 | 0.00 | 46 | 1021.5 |
| 20260509074506 | 52 | 92 | 4.0 | 11.0 | 0.00 | 0.00 | 0.00 | 41 | 1021.3 |
| 20260509073005 | 53 | 317 | 7.0 | 15.0 | 0.00 | 0.00 | 0.00 | 40 | 1020.9 |
| 20260509071504 | 54 | 317 | 7.0 | 15.0 | 0.00 | 0.00 | 0.00 | 39 | 1020.8 |
| 20260509070010 | 54 | 311 | 10.0 | 16.0 | 0.00 | 0.00 | 0.00 | 38 | 1020.7 |
| 20260509064505 | 54 | 322 | 10.0 | 18.0 | 0.00 | 0.00 | 0.00 | 38 | 1020.6 |
| 20260509063029 | 54 | 306 | 9.0 | 19.0 | 0.00 | 0.00 | 0.00 | 37 | 1020.6 |
| 20260509061528 | 54 | 317 | 8.0 | 17.0 | 0.00 | 0.00 | 0.00 | 36 | 1020.6 |
| 20260509060029 | 54 | 338 | 11.0 | 18.0 | 0.00 | 0.00 | 0.00 | 35 | 1020.5 |
| 20260509054535 | 55 | 360 | 7.0 | 12.0 | 0.00 | 0.00 | 0.00 | 34 | 1020.7 |
| 20260509053026 | 56 | 339 | 6.0 | 12.0 | 0.00 | 0.00 | 0.00 | 32 | 1020.6 |
| 20260509051528 | 57 | 309 | 5.0 | 18.0 | 0.00 | 0.00 | 0.00 | 31 | 1020.5 |
| 20260509050026 | 58 | 342 | 10.0 | 20.0 | 0.00 | 0.00 | 0.00 | 30 | 1020.4 |
| 20260509044526 | 59 | 321 | 5.0 | 16.0 | 0.00 | 0.00 | 0.00 | 28 | 1020.3 |
| 20260509043026 | 59 | 296 | 7.0 | 14.0 | 0.00 | 0.00 | 0.00 | 27 | 1020.1 |
| 20260509041544 | 59 | 303 | 10.0 | 18.0 | 0.00 | 0.00 | 0.00 | 27 | 1020.0 |
| 20260509040029 | 59 | 317 | 8.0 | 14.0 | 0.00 | 0.00 | 0.00 | 28 | 1019.8 |
| 20260509034526 | 60 | 319 | 6.0 | 12.0 | 0.00 | 0.00 | 0.00 | 27 | 1019.7 |
| 20260509033024 | 60 | 316 | 6.0 | 12.0 | 0.00 | 0.00 | 0.00 | 26 | 1019.7 |
| 20260509031534 | 61 | 301 | 5.0 | 12.0 | 0.00 | 0.00 | 0.00 | 24 | 1019.6 |
| 20260509030028 | 62 | 304 | 6.0 | 10.0 | 0.00 | 0.00 | 0.00 | 25 | 1019.4 |
| 20260509024527 | 63 | 327 | 4.0 | 10.0 | 0.00 | 0.00 | 0.00 | 23 | 1019.2 |
| 20260509023029 | 65 | 319 | 4.0 | 13.0 | 0.00 | 0.00 | 0.00 | 21 | 1019.0 |
| 20260509021533 | 66 | 339 | 8.0 | 18.0 | 0.00 | 0.00 | 0.00 | 19 | 1018.9 |
| 20260509020040 | 67 | 330 | 8.0 | 18.0 | 0.00 | 0.00 | 0.00 | 19 | 1018.8 |
| 20260509014527 | 68 | 323 | 13.0 | 19.0 | 0.00 | 0.00 | 0.00 | 19 | 1018.7 |
| 20260509013037 | 68 | 311 | 10.0 | 20.0 | 0.00 | 0.00 | 0.00 | 20 | 1018.6 |
| 20260509011533 | 69 | 327 | 9.0 | 17.0 | 0.00 | 0.00 | 0.00 | 19 | 1018.5 |
| 20260509010028 | 70 | 285 | 12.0 | 17.0 | 0.00 | 0.00 | 0.00 | 18 | 1018.4 |
| 20260509004533 | 71 | 318 | 11.0 | 19.0 | 0.00 | 0.00 | 0.00 | 16 | 1018.4 |
| 20260509003028 | 71 | 279 | 9.0 | 17.0 | 0.00 | 0.00 | 0.00 | 16 | 1018.4 |
| 20260509001525 | 71 | 325 | 14.0 | 22.0 | 0.00 | 0.00 | 0.00 | 15 | 1018.4 |
| 20260509000024 | 71 | 247 | 14.0 | 23.0 | 0.00 | 0.00 | 0.00 | 15 | 1018.3 |
| 20260508234531 | 71 | 261 | 13.0 | 21.0 | 0.00 | 0.00 | 0.00 | 15 | 1018.3 |
| 20260508233027 | 72 | 267 | 11.0 | 21.0 | 0.00 | 0.00 | 0.00 | 15 | 1018.2 |
| 20260508231525 | 72 | 286 | 16.0 | 24.0 | 0.00 | 0.00 | 0.00 | 14 | 1018.3 |
| 20260508230004 | 73 | 274 | 14.0 | 20.0 | 0.00 | 0.00 | 0.00 | 14 | 1018.2 |
| 20260508224504 | 72 | 257 | 12.0 | 21.0 | 0.00 | 0.00 | 0.00 | 14 | 1018.2 |
| 20260508223004 | 72 | 220 | 11.0 | 24.0 | 0.00 | 0.00 | 0.00 | 14 | 1018.3 |
| 20260508221507 | 72 | 234 | 14.0 | 21.0 | 0.00 | 0.00 | 0.00 | 13 | 1018.3 |
| 20260508220004 | 72 | 247 | 13.0 | 21.0 | 0.00 | 0.00 | 0.00 | 15 | 1018.4 |
| 20260508214513 | 72 | 269 | 10.0 | 20.0 | 0.00 | 0.00 | 0.00 | 18 | 1018.4 |
| 20260508213003 | 72 | 250 | 12.0 | 19.0 | 0.00 | 0.00 | 0.00 | 19 | 1018.6 |
| 20260508211516 | 69 | 241 | 10.0 | 17.0 | 0.00 | 0.00 | 0.00 | 19 | 1018.6 |
| 20260508210004 | 70 | 263 | 15.0 | 24.0 | 0.00 | 0.00 | 0.00 | 18 | 1018.6 |
| 20260508204528 | 68 | 298 | 5.0 | 14.0 | 0.00 | 0.00 | 0.00 | 19 | 1018.7 |
| 20260508203032 | 68 | 249 | 2.0 | 13.0 | 0.00 | 0.00 | 0.00 | 19 | 1018.8 |
| 20260508201526 | 67 | 298 | 5.0 | 13.0 | 0.00 | 0.00 | 0.00 | 19 | 1018.7 |
| 20260508200028 | 69 | 256 | 8.0 | 18.0 | 0.00 | 0.00 | 0.00 | 19 | 1018.9 |
| 20260508194533 | 69 | 237 | 8.0 | 17.0 | 0.00 | 0.00 | 0.00 | 19 | 1019.2 |
| 20260508193028 | 68 | 220 | 6.0 | 17.0 | 0.00 | 0.00 | 0.00 | 20 | 1019.2 |
| 20260508191529 | 68 | 280 | 12.0 | 19.0 | 0.00 | 0.00 | 0.00 | 21 | 1019.5 |
| 20260508190028 | 67 | 285 | 9.0 | 19.0 | 0.00 | 0.00 | 0.00 | 22 | 1019.6 |
| 20260508184528 | 66 | 290 | 9.0 | 17.0 | 0.00 | 0.00 | 0.00 | 23 | 1019.8 |
| 20260508183027 | 65 | 288 | 9.0 | 19.0 | 0.00 | 0.00 | 0.00 | 24 | 1019.8 |
| 20260508181531 | 65 | 302 | 9.0 | 15.0 | 0.00 | 0.00 | 0.00 | 24 | 1020.0 |
| 20260508180032 | 62 | 288 | 9.0 | 15.0 | 0.00 | 0.00 | 0.00 | 27 | 1020.0 |
| 20260508174528 | 62 | 277 | 10.0 | 16.0 | 0.00 | 0.00 | 0.00 | 26 | 1020.0 |
| 20260508173028 | 62 | 288 | 9.0 | 16.0 | 0.00 | 0.00 | 0.00 | 26 | 1020.0 |
| 20260508171533 | 62 | 241 | 6.0 | 13.0 | 0.00 | 0.00 | 0.00 | 28 | 1019.8 |
| 20260508170025 | 61 | 268 | 11.0 | 18.0 | 0.00 | 0.00 | 0.00 | 28 | 1019.9 |
| 20260508164528 | 63 | 274 | 11.0 | 17.0 | 0.00 | 0.00 | 0.00 | 26 | 1019.8 |
| 20260508163028 | 62 | 261 | 10.0 | 18.0 | 0.00 | 0.00 | 0.00 | 28 | 1019.8 |